Content
SEND FEEDBACK

United States of America Flag

NEVADA CITY, CALIFORNIA


Home > North America > United States > California
Elevation: 2934 feet     Latitude: 39 18N     Longitude: 121 00W

WEATHER
 
SELECT A DAY
Number of Records: 101,056;   Date Range: 9/21/11 - 3/22/16
 
SHARE

PRINT THIS DATA

[ ← Previous Day ]
WEATHER ALMANAC - FEBRUARY 12, 2013
[ Next Day → ]
[ °C ]   °F
Weather ElementAverageHighLow
Temperature43 °F50 °F (12:55 pm)35.6 °F (5:55 am)
Dewpoint28.1 °F32 °F (10:55 am)17.6 °F (12:35 am)
Humidity56.7 %75 % (8:55 pm)36 % (12:35 am)
Barometer30.29 in30.33 in (8:55 am)30.23 in (12:35 am)
Wind Speed1.8 mph6.9 mph (1:35 pm)
Weather ElementAverage
Visibility9.7 mi
Wind DirectionE (93.8 °)

Weather ElementTotal
Precipitation---
Heating Degree Days22.2 (Base 65)
Averaged from 69 records on February 12, 2013
WEATHER CONDITIONS BREAKOUT
WIND DIRECTION BREAKOUT
WEATHER BY HOUR - FEBRUARY 12, 2013
[ °C ]   °F
Local TimeTemperatureDewpointHumidityBarometerVisibilityWind DirectionWind SpeedGust SpeedPrecipitationEventsConditions
12:35 AM42.8 °F17.6 °F36 %30.23 in10.0 miCalmClear
12:55 AM39.2 °F19.4 °F45 %30.23 in10.0 miCalmClear
1:15 AM41.0 °F19.4 °F42 %30.23 in10.0 miCalmClear
1:35 AM39.2 °F19.4 °F45 %30.23 in10.0 miCalmClear
1:55 AM41.0 °F19.4 °F42 %30.24 in10.0 miCalmClear
2:15 AM41.0 °F19.4 °F42 %30.24 in10.0 miCalmClear
2:35 AM39.2 °F19.4 °F45 %30.24 in10.0 miCalmClear
2:55 AM41.0 °F19.4 °F42 %30.24 in10.0 miCalmClear
3:15 AM41.0 °F17.6 °F39 %30.24 in10.0 miCalmClear
3:35 AM41.0 °F19.4 °F42 %30.24 in10.0 miCalmClear
4:15 AM39.2 °F19.4 °F45 %30.24 in10.0 miCalmClear
4:35 AM37.4 °F21.2 °F52 %30.25 in10.0 miWNW (300°)4.6 mphClear
4:55 AM39.2 °F21.2 °F49 %30.25 in10.0 miNW (320°)5.8 mphClear
5:15 AM37.4 °F23.0 °F56 %30.26 in10.0 miNW (320°)5.8 mphClear
5:35 AM37.4 °F23.0 °F56 %30.26 in10.0 miNNW (330°)3.5 mphClear
5:55 AM35.6 °F23.0 °F60 %30.27 in10.0 miNorth (10°)3.5 mphClear
6:15 AM37.4 °F23.0 °F56 %30.27 in10.0 miCalmClear
6:35 AM37.4 °F24.8 °F60 %30.27 in10.0 miCalmClear
6:55 AM37.4 °F26.6 °F65 %30.28 in10.0 miCalmClear
7:15 AM37.4 °F26.6 °F65 %30.29 in8.0 miCalmClear
7:35 AM37.4 °F26.6 °F65 %30.30 in9.0 miCalmClear
7:55 AM37.4 °F26.6 °F65 %30.31 in7.0 miCalmClear
8:15 AM39.2 °F26.6 °F61 %30.32 in10.0 miCalmClear
8:35 AM39.2 °F28.4 °F65 %30.32 in10.0 miCalmClear
8:55 AM41.0 °F28.4 °F61 %30.33 in10.0 miCalmClear
9:15 AM41.0 °F28.4 °F61 %30.33 in10.0 miCalmClear
9:35 AM42.8 °F28.4 °F57 %30.33 in10.0 miCalmClear
9:55 AM44.6 °F28.4 °F53 %30.33 in10.0 miSSW (210°)3.5 mphClear
10:15 AM46.4 °F28.4 °F50 %30.33 in10.0 miCalmClear
10:35 AM46.4 °F30.2 °F53 %30.33 in10.0 miWNW (290°)5.8 mphClear
10:55 AM46.4 °F32.0 °F57 %30.33 in10.0 miWSW (250°)4.6 mphClear
11:15 AM48.2 °F30.2 °F50 %30.33 in10.0 miWSW (250°)3.5 mphClear
11:35 AM48.2 °F30.2 °F50 %30.33 in10.0 miWest (260°)3.5 mphClear
11:55 AM48.2 °F30.2 °F50 %30.32 in10.0 miWest (270°)5.8 mphClear
12:15 PM48.2 °F30.2 °F50 %30.32 in10.0 miWest (260°)5.8 mphClear
12:35 PM48.2 °F30.2 °F50 %30.32 in10.0 miWest (270°)4.6 mphClear
12:55 PM50.0 °F32.0 °F50 %30.31 in10.0 miWest (270°)5.8 mphClear
1:15 PM50.0 °F32.0 °F50 %30.31 in10.0 miWest (270°)5.8 mphClear
1:35 PM50.0 °F32.0 °F50 %30.30 in10.0 miWNW (290°)6.9 mphClear
1:55 PM50.0 °F32.0 °F50 %30.30 in10.0 miCalmClear
2:15 PM50.0 °F32.0 °F50 %30.30 in10.0 miWNW (290°)5.8 mphClear
2:35 PM50.0 °F32.0 °F50 %30.30 in9.0 miCalmClear
2:55 PM50.0 °F32.0 °F50 %30.30 in10.0 miWest (260°)4.6 mphClear
3:15 PM50.0 °F32.0 °F50 %30.30 in10.0 miWNW (290°)3.5 mphClear
3:35 PM50.0 °F32.0 °F50 %30.30 in10.0 miWest (280°)6.9 mphClear
3:55 PM50.0 °F32.0 °F50 %30.30 in8.0 miWNW (300°)5.8 mphClear
4:15 PM50.0 °F32.0 °F50 %30.30 in10.0 miWNW (290°)6.9 mphClear
4:35 PM50.0 °F32.0 °F50 %30.30 in10.0 miWest (260°)5.8 mphClear
4:55 PM48.2 °F32.0 °F54 %30.29 in10.0 miWest (260°)4.6 mphClear
5:15 PM48.2 °F32.0 °F54 %30.29 in9.0 miCalmClear
5:35 PM46.4 °F32.0 °F57 %30.29 in9.0 miCalmClear
5:55 PM44.6 °F32.0 °F61 %30.29 in9.0 miCalmClear
6:15 PM44.6 °F32.0 °F61 %30.29 in9.0 miCalm
6:55 PM41.0 °F32.0 °F70 %30.29 in10.0 miENE (70°)3.5 mphClear
7:15 PM42.8 °F32.0 °F66 %30.29 in10.0 miCalmClear
7:35 PM42.8 °F32.0 °F66 %30.29 in10.0 miCalmClear
7:55 PM41.0 °F32.0 °F70 %30.29 in10.0 miCalmClear
8:15 PM41.0 °F32.0 °F70 %30.29 in10.0 miCalmClear
8:35 PM41.0 °F32.0 °F70 %30.29 in8.0 miCalmClear
8:55 PM39.2 °F32.0 °F75 %30.29 in10.0 miCalmClear
9:15 PM39.2 °F32.0 °F75 %30.29 in10.0 miCalmClear
9:35 PM39.2 °F32.0 °F75 %30.29 in10.0 miCalmClear
9:55 PM41.0 °F32.0 °F70 %30.30 in10.0 miCalmClear
10:15 PM39.2 °F32.0 °F75 %30.30 in9.0 miCalmClear
10:35 PM39.2 °F32.0 °F75 %30.30 in8.0 miCalmClear
10:55 PM39.2 °F32.0 °F75 %30.30 in9.0 miCalmClear
11:15 PM41.0 °F32.0 °F70 %30.30 in9.0 miCalmClear
11:35 PM41.0 °F32.0 °F70 %30.30 in10.0 miCalmClear
11:55 PM41.0 °F32.0 °F70 %30.30 in10.0 miCalmClear
Hourly data recorded from KGOO, located miles away from Nevada City, California




STORIES FROM OUR PARTNERS